Regional Weather Roundup
Issued by NWS

Home | Current Version | Previous Version | Graphics & Text | Print | Product List | Glossary On
Versions: 1 2 3 4 5 6 7 8 9 10 11 12 13 14 15 16 17 18 19 20 21 22 23 24 25 26 27 28 29 30 31 32 33 34 35 36 37 38 39 40 41 42 43 44 45 46 47 48 49 50
000
ASUS45 KPSR 021910
RWRAZ

ARIZONA HOURLY REGIONAL WEATHER ROUNDUP
NATIONAL WEATHER SERVICE PHOENIX AZ
1200 PM MST SUN AUG 02 2015

NOTE: FAIR INDICATES FEW OR NO CLOUDS BELOW 12,000 FEET WITH NO
SIGNIFICANT WEATHER AND/OR OBSTRUCTIONS TO VISIBILITY.

AZZ001>003-036-022000-
NORTHWEST ARIZONA

CITY           SKY/WX    TMP DP  RH WIND       PRES   REMARKS
BULLHEAD CITY  SUNNY    100  55  22 W6        29.82F
KINGMAN        SUNNY     94  47  20 W14G23    30.02F
$$

AZZ004>008-015-016-018-022000-
NORTH CENTRAL ARIZONA

CITY           SKY/WX    TMP DP  RH WIND       PRES   REMARKS
GRAND CANYON   PTSUNNY   76  50  40 W12G20    30.22F
WILLIAMS       PTSUNNY   75  52  43 W10       30.30F
PRESCOTT       PTSUNNY   84  52  33 SW10      30.13F
FLAGSTAFF      PTSUNNY   75  52  44 SW18G25   30.26F
PAYSON         MOSUNNY   82  55  39 VRB7      30.16F
PAGE           PTSUNNY   72  64  76 VRB5      30.11F
$$

AZZ009>014-017-022000-
NORTHEAST ARIZONA

CITY           SKY/WX    TMP DP  RH WIND       PRES   REMARKS
WINSLOW        MOSUNNY   90  50  25 SW13      30.09F
SAINT JOHNS    PTSUNNY   77  56  48 W5        30.18F
SHOW LOW       MOSUNNY   75  50  41 SW9       30.25F
$$

AZZ023-022000-
GREATER PHOENIX AREA

CITY           SKY/WX    TMP DP  RH WIND       PRES   REMARKS
PHOENIX        MOSUNNY  101  54  20 VRB3      29.83F
GLENDALE       MOSUNNY  100  57  23 SE3       29.85F
DEER VALLEY    SUNNY     98  57  25 W8        29.85F
SCOTTSDALE     SUNNY     98  56  24 SW6       29.87F
MESA-FALCON    MOSUNNY  102  57  22 S12       29.85F HX 101
MESA-GATEWAY   MOSUNNY   99  57  25 W5        29.88F
CHANDLER       MOSUNNY   97  55  24 W8        29.85F
$$

AZZ027-028-022000-
SOUTHWEST MARICOPA COUNTY AND PINAL COUNTY

CITY           SKY/WX    TMP DP  RH WIND       PRES   REMARKS
CASA GRANDE    SUNNY     99  57  25 CALM      29.86F
GILA BEND      MOSUNNY  103  50  17 VRB3      29.82F HX 100
$$

AZZ503-504-507>509-022000-
SOUTHEAST ARIZONA

CITY           SKY/WX    TMP DP  RH WIND       PRES   REMARKS
TUCSON         SUNNY     95  58  28 SW6       29.97F
DAVIS-MONTHAN  MOSUNNY   94  59  30 NW5       29.96F
RYAN FIELD     SUNNY     99  57  25 N8        29.96F
NOGALES        SUNNY     89  59  36 CALM      30.07F
SIERRA VISTA   SUNNY     84  59  42 NE7       30.14F
DOUGLAS          N/A    N/A N/A N/A MISG      30.08F
SAFFORD        SUNNY     93  58  30 VRB3      29.99F
$$

AZZ020-021-025-026-031-022000-
SOUTHWEST ARIZONA

CITY           SKY/WX    TMP DP  RH WIND       PRES   REMARKS
YUMA           SUNNY    105  60  22 S8        29.77F HX 106
$$

CAZ031-033-041-043-047-048-061-022000-
SOUTHERN CALIFORNIA

CITY           SKY/WX    TMP DP  RH WIND       PRES   REMARKS
DOWNTOWN L.A.  NOT AVBL
L.A. AIRPORT   MOSUNNY   75  65  70 SW9       29.92F
SAN DIEGO      CLOUDY    72  64  76 W9        29.94S
BURBANK        SUNNY     83  63  50 SE5       29.91F
ONTARIO        MOSUNNY   85  61  44 W8        29.91F
RIVERSIDE      SUNNY     84  62  47 VRB6      29.90F
PALM SPRINGS   SUNNY    107  47  13 CALM      29.79F HX 103
EL CENTRO NAS  SUNNY    106  47  13 VRB3      29.76F HX 102
IMPERIAL       SUNNY    105  49  15 CALM      29.75F HX 102
BLYTHE         SUNNY    105  57  20 CALM      29.79F HX 104
NEEDLES        SUNNY    100  51  19 CALM      29.83F
$$

NVZ020-UTZ003-022000-
SOUTHERN NEVADA-UTAH

CITY           SKY/WX    TMP DP  RH WIND       PRES   REMARKS
LAS VEGAS      MOSUNNY   95  52  23 VRB3      29.89F
SALT LAKE CITY PTSUNNY   90  43  19 CALM      29.97F
$$

NMZ009-TXZ055-022000-
NEW MEXICO-WEST TEXAS

CITY           SKY/WX    TMP DP  RH WIND       PRES   REMARKS
ALBUQUERQUE    PTSUNNY   80  55  42 W6        30.16F
EL PASO        MOSUNNY   90  55  30 VRB3      30.04F
$$


........................KEY........................
SKY/WX - SKY CONDITION/WEATHER
TMP    - TEMPERATURE IN FAHRENHEIT
DP     - DEW POINT IN FAHRENHEIT
RH     - RELATIVE HUMIDITY IN PERCENT
WIND   - DIRECTION AND SPEED IN MILES PER HOUR (MPH)
VRB    - VARIABLE WIND DIRECTION
PRES   - MEAN SEA LEVEL PRESSURE IN INCHES OF MERCURY
         F - FALLING PRESSURE   R - RISING PRESSURE
         S - STEADY PRESSURE
VSB    - VISIBILITY IN MILES
HX     - HEAT INDEX IN FAHRENHEIT
WCI    - WIND CHILL INDEX IN FAHRENHEIT
TC     - TEMPERATURE IN CELSIUS WHICH IS ALSO KNOWN AS
         TEMPERATURE IN CENTIGRADE
AFB    - AIR FORCE BASE
         LUKE AFB IS LUKE AIR FORCE BASE
         DAVIS-MONTHAN IS DAVIS-MONTHAN AIR FORCE BASE
NAS    - NAVAL AIR STATION
         EL CENTRO NAS IS EL CENTRO NAVAL AIR STATION
N/A    - NOT AVAILABLE



USA.gov is the U.S. government's official web portal to all federal, state and local government web resources and services.